#timestamp,LO_Frequency,Hit,StdDev 
1584140415.8,286047016.0,N
1584140435.6,286047014.2,N
1584140455.5,286047016.3,N
1584140475.3,286047020.0,N
1584140495.1,286047020.4,N
1584140515.9,286047019.9,N
1584140535.7,286047021.4,N
1584140555.5,286047011.4,N
1584140575.4,286047006.6,N
1584140595.2,286047008.7,N
1584140615.1,286047001.4,N
1584140616.0,286047001.4,N
1584140635.8,286046995.7,N
1584140655.6,286046999.1,N
1584140675.5,286046998.8,N
1584140695.3,286047000.7,N
1584140715.1,286047007.3,N
1584140735.9,286047010.8,N
1584140755.7,286047009.3,N
1584140775.6,286047003.3,N
1584140795.4,286047006.8,N
1584140815.2,286047018.1,N
1584140835.1,286047020.2,N
1584140836.0,286047020.2,N
1584140855.8,286047026.8,Y
1584140875.7,286047009.2,P
1584140895.5,286047006.2,P
1584140915.3,286047011.0,P
1584140935.2,286047008.1,Y
1584140955.0,286046997.4,P
1584140955.9,286046997.4,N
1584140975.7,286047003.6,N
1584140995.6,286047006.8,N
1584141015.4,286047004.5,N
1584141035.3,286047011.7,N
1584141055.1,286047006.7,N
1584141056.0,286047006.7,N
1584141075.8,286047003.6,N
1584141095.7,286046993.3,N
1584141115.5,286046991.6,N
1584141135.4,286047002.8,N
1584141155.2,286046998.2,N
1584141175.0,286046994.3,N
1584141175.9,286046994.3,N
1584141195.8,286046984.8,N
1584141215.6,286046985.1,N
1584141235.5,286046992.6,N
1584141255.3,286046988.9,N
1584141275.1,286046986.0,N
1584141295.9,286046989.8,N
1584141315.7,286046991.1,N
1584141335.5,286046987.7,N
1584141355.4,286046989.5,N
1584141375.2,286046987.7,N
1584141395.1,286046986.5,N
1584141396.0,286046986.5,N
1584141415.8,286046995.5,N
1584141435.6,286046995.0,N
1584141455.5,286046996.7,N
1584141475.3,286047010.1,N
1584141495.1,286047014.0,N
1584141515.9,286047003.1,N
1584141535.7,286047001.5,N
1584141555.6,286046997.3,N
1584141575.4,286047002.0,N
1584141595.2,286047004.6,N
1584141615.1,286047007.9,N
1584141616.0,286047007.9,N
1584141635.8,286046998.5,N
1584141655.6,286046990.6,N
1584141675.5,286046993.5,N
1584141695.3,286047000.2,N
1584141715.2,286046996.8,N
1584141735.9,286047001.7,N
1584141755.7,286047006.3,N
1584141775.6,286047008.4,N
1584141795.4,286046999.1,N
1584141815.2,286046997.4,N
1584141835.1,286046998.4,N
1584141836.0,286046998.4,N
1584141855.8,286047003.9,N
1584141875.7,286047001.8,N
1584141895.5,286047010.7,N
1584141915.3,286047007.3,N
1584141935.2,286047011.6,N
1584141955.0,286047017.7,N
1584141955.9,286047017.7,N
1584141975.7,286047002.9,N
1584141995.6,286047006.2,N
1584142015.4,286047009.6,N
1584142035.3,286047008.2,N
1584142085.1,286047005.4,E
1584142095.0,286047004.6,N
1584142095.9,286047004.6,P
1584142115.8,286047010.4,P
1584142135.6,286047005.1,N
1584142155.5,286047003.8,N
1584142175.3,286047008.3,Y
1584142195.1,286047005.4,P
1584142215.9,286047003.7,P
1584142235.7,286047003.2,P
1584142255.5,286047004.5,Y
1584142275.4,286046999.7,P
1584142295.2,286047004.5,N
1584142315.1,286047006.2,N
1584142316.0,286047006.2,N
1584142335.8,286047010.4,Y
1584142355.6,286047007.9,P
1584142375.5,286047012.9,P
1584142395.3,286047014.5,P
1584142415.1,286047009.1,N
1584142435.9,286047001.5,N
1584142455.7,286047003.3,N
1584142475.6,286047009.2,N
1584142495.4,286047011.1,N
1584142515.2,286047013.7,Y
1584142535.1,286047000.4,P
1584142536.0,286047000.4,N
1584142555.8,286046995.6,N
1584142575.7,286046988.4,N
1584142595.5,286046985.3,N
1584142615.3,286046990.7,N
1584142635.2,286046992.7,N
1584142655.0,286046997.5,N
1584142655.9,286046997.5,N
1584142675.8,286046998.2,N
1584142695.6,286046998.2,N
1584142715.4,286046999.2,N
1584142735.3,286047001.6,N
1584142755.1,286047007.2,N
1584142775.8,286047001.7,N
1584142795.7,286046996.9,N
1584142815.5,286046998.3,N
1584142835.4,286047000.4,N
1584142855.2,286046999.6,N
1584142875.0,286046989.2,N
1584142875.9,286046989.2,N
1584142895.8,286046997.5,N
1584142915.6,286046999.6,N
1584142935.4,286046993.3,N
1584142955.3,286046995.7,N
1584142975.1,286047002.3,N
1584142995.9,286047001.3,N
1584143015.7,286046994.8,N
1584143035.5,286046994.7,N
1584143055.4,286046994.4,N
1584143075.2,286046989.1,N
1584143095.1,286046985.5,N
1584143096.0,286046985.5,N
1584143115.8,286046990.9,N
1584143135.6,286046990.5,N
1584143155.5,286046992.6,N
1584143175.3,286046986.9,N
1584143195.1,286046993.6,N
1584143215.9,286046996.4,N
1584143235.7,286046993.1,N
1584143255.6,286046998.5,N
1584143275.4,286046995.9,N
1584143295.2,286047005.1,N
1584143315.1,286047004.3,N
1584143316.0,286047004.3,N
1584143335.8,286046998.4,N
1584143355.6,286047004.6,N
1584143375.5,286047007.8,N
1584143395.3,286047014.0,N
1584143415.1,286047013.8,N
1584143435.9,286047009.3,N
1584143455.7,286047006.1,N
1584143475.6,286047016.1,N
1584143495.4,286047017.7,N
1584143515.2,286047022.6,N
1584143535.1,286047021.6,N
1584143536.0,286047021.6,N
1584143555.8,286047021.6,N
1584143575.6,286047024.6,N
1584143595.5,286047018.0,N
1584143615.3,286047018.9,N
1584143635.2,286047023.4,N
1584143655.9,286047026.1,N
1584143675.7,286047030.6,N
1584143695.6,286047035.3,N
1584143715.4,286047036.7,N
1584143735.2,286047037.7,N
1584143755.1,286047041.9,Y
1584143756.0,286047041.9,P
1584143775.8,286047030.5,N
1584143795.7,286047033.1,N
1584143815.5,286047025.9,N
1584143835.3,286047027.9,Y
1584143855.2,286046999.8,P
1584143875.0,286047001.3,N
1584143875.9,286047001.3,N
1584143895.8,286047002.1,N
1584143915.6,286047008.9,N
1584143935.4,286047007.8,N
1584143955.3,286047008.8,N
1584143975.1,286047001.8,N
1584143995.8,286047004.2,N
